Regional Weather Roundup
Issued by NWS

Home | Current Version | Previous Version | Text Only | Print | Product List | Glossary Off
Versions: 1 2 3 4 5 6 7 8 9 10 11 12 13 14 15 16 17 18 19 20 21 22 23 24 25 26 27 28 29 30 31 32 33 34 35 36 37 38 39 40 41 42 43 44 45 46 47 48 49 50

000
ASUS43 KLOT 260821
RWRIL

ILLINOIS REGIONAL WEATHER ROUNDUP
NATIONAL WEATHER SERVICE CHICAGO/ROMEOVILLE IL
300 AM CDT TUE MAY 26 2015

NOTE: "FAIR" INDICATES FEW OR NO CLOUDS BELOW 12,000 FEET WITH NO
SIGNIFICANT WEATHER AND/OR OBSTRUCTIONS TO VISIBILITY.

* THESE STATIONS ARE NOT UNDER NWS QUALITY CONTROL. THEY ALSO MAY NOT
  REPORT WEATHER SUCH AS PRECIPITATION OR FOG.

ILZ001-002-007-009-015-016-024-260900-
NORTHWEST ILLINOIS

CITY           SKY/WX    TMP DP  RH WIND       PRES   REMARKS
MOLINE         PTCLDY    70  65  84 S9        29.86S
STERLING*      CLEAR     68  64  88 S5        29.89F
SAVANNA*       MOCLDY    68  64  86 S9        29.88S
$$

ILZ003-004-008-010-011-017-018-260900-
NORTH CENTRAL ILLINOIS

CITY           SKY/WX    TMP DP  RH WIND       PRES   REMARKS
ROCKFORD       PTCLDY    69  63  81 S10       29.91F
FREEPORT*      PTCLDY    66  63  90 S10       29.91S
ROCHELLE*      CLEAR     66  64  93 S10       29.92S
DE KALB*       CLEAR     62  60  94 S9        29.94S
PERU*          PTCLDY    68  65  89 S10       29.92S
$$

ILZ005-006-012>014-019>023-260900-
NORTHEAST ILLINOIS

CITY           SKY/WX    TMP DP  RH WIND       PRES   REMARKS
CHICAGO-OHARE  PTCLDY    68  64  87 S9        29.92F
CHICAGO-MIDWAY PTCLDY    70  65  84 S12       29.93S
AURORA         CLEAR     65  61  87 S7        29.93S
LANSING*       PTCLDY    66  63  87 S9        29.95F
JOLIET*        PTCLDY    69  66  91 S6        29.94S
WAUKEGAN       PTCLDY    67  62  84 S7        29.91F
DUPAGE AIRPORT PTCLDY    67  64  90 S10       29.93S
KANKAKEE*      CLEAR     66  65  94 S9        29.96F
WHEELING       PTCLDY    69  63  81 S9        29.93F
MORRIS*        CLEAR     66  64  91 S6        29.92S
ROMEOVILLE*    PTCLDY    67  64  89 S12       29.94S
NORTHERLY ISL    N/A     70  63  78 S13         N/A
$$

LMZ740>746-260900-
SOUTHERN LAKE MICHIGAN

STATION/POSITION SKY/WX   TEMP    WIND        PRES    VSBY  WAVE
                          AIR SEA DIR/SP/G                  HT/PER
                          (F)     (DEG/KT/KT) (MB)    (MI)  (FT/S)
SOUTHERN BUOY              46 38  190/ 10/ 12 1014.2F         1/ 3
HARRISON CRIB              69     190/ 17/ 19   N/A
BURNHAM HARBOR             69     200/  7/ 15   N/A
CALUMET HARBOR             70     180/ 11/ 17   N/A
BURNS HARBOR               69     190/  9/ 13 1015.2S
MICHIGAN CITY              67     150/ 10/ 14   N/A
MICHIGAN CITY 6N           61 52  180/  8/ 10   N/A           1
ST. JOSEPH                 62 54  200/ 10/ 10   N/A           1/ 3
$$

ILZ025>027-034>036-040-047-049-050-058-095>099-260900-
WEST-CENTRAL ILLINOIS

CITY           SKY/WX    TMP DP  RH WIND       PRES   REMARKS
QUINCY         CLOUDY    70  65  84 SE7       29.85F
GALESBURG*     MOCLDY    68  65  91 S7        29.88F
MACOMB*        CLOUDY    69  66  92 S9        29.89F
JACKSONVILLE*  CLOUDY    72  67  87 SE12      29.89F
PITTSFIELD*    CLOUDY    70  66  87 SE9       29.88F
$$

ILZ028>032-037-038-041>044-048-051>054-059>061-260900-
CENTRAL ILLINOIS

CITY           SKY/WX    TMP DP  RH WIND       PRES   REMARKS
PONTIAC        CLEAR     68  67  94 S13       29.94F
BLOOMINGTON    PTCLDY    66  66 100 S15       29.96S
DECATUR        CLOUDY    70  66  87 S13       29.95S
PEORIA         MOCLDY    70  66  87 S9        29.91F
LACON*         PTCLDY    68  65  88 S5        29.90F
LINCOLN*       MOCLDY    69  66  89 S9        29.91F
SPRINGFIELD    CLOUDY    71  66  84 S13       29.92S
TAYLORVILLE    CLOUDY    68  64  88 SE10G16   29.94F
$$

ILZ033-039-045-046-055>057-062-063-260900-
EAST-CENTRAL ILLINOIS

CITY           SKY/WX    TMP DP  RH WIND       PRES   REMARKS
CHAMPAIGN      CLOUDY    68  65  90 S16       29.96F
DANVILLE*      CLOUDY    66  65  94 S10       29.96F
RANTOUL*       CLOUDY    68  66  93 S9        29.96F
MATTOON        CLOUDY    68  66  93 S12       29.97S
PARIS*         CLOUDY    68  66  94 S12       29.99F
$$

ILZ079-100>102-260900-
SOUTHWEST ILLINOIS

CITY           SKY/WX    TMP DP  RH WIND       PRES   REMARKS
ALTON          CLOUDY    71  71 100 SE9       29.91S
BELLEVILLE     CLOUDY    71  71  99 SE12      29.90F
CAHOKIA*       CLOUDY    72  68  87 SE9       29.88F
SPARTA*        CLOUDY    71  68  91 S8        29.93F
$$

ILZ064>066-069>071-074>076-080>082-084>086-088>090-092>094-260900-
SOUTH-CENTRAL ILLINOIS

CITY           SKY/WX    TMP DP  RH WIND       PRES   REMARKS
CARBONDALE     CLOUDY    71  67  87 S12       29.94F
CAIRO*         MOCLDY    71  68  90 SE12G17   29.97S
EFFINGHAM*     CLOUDY    69  65  86 SE7       29.99F
MARION         CLOUDY    72  68  88 S13       29.97F
MT. VERNON     CLOUDY    72  64  78 S9        29.97F
CENTRALIA*     CLOUDY    70  66  86 S13G18    29.95F
SALEM*         CLOUDY    72  67  84 S8        29.96F
METROPOLIS*    CLOUDY    71  70  96 SE5       29.98F
$$

ILZ067-068-072-073-078-083-087-091-260900-
SOUTHEAST ILLINOIS

CITY           SKY/WX    TMP DP  RH WIND       PRES   REMARKS
LAWRENCEVILLE  CLOUDY    69  66  90 S13       30.01S
FLORA*         MOCLDY    69  66  91 SE12      29.98F
FAIRFIELD*     CLOUDY    70  67  91 S9        29.97F
HARRISBURG*    CLOUDY    71  69  94 S12       30.01S
ROBINSON*      CLOUDY    68  66  94 S9        30.02S
CARMI*         CLOUDY    70  64  83 SE10      30.00S
$$

ABBREVIATIONS USED IN REMARKS
   TC - TEMPERATURE IN CELSIUS
  WCI - WIND CHILL INDEX
   HX - HEAT INDEX
  VSB - VISIBILITY
$$



USA.gov is the U.S. government's official web portal to all federal, state and local government web resources and services.